Theta_e
345 344 347 351 347 349 350 349 350 357 354 353 354 353 355 353 354 351 351 347 350 347
351 342 345 348 351 349 346 350 351 356 357 356 356 356 354 352 353 352 353 348 350 350
348 350 347 348 352 351 347 349 353 354 358 356 355 354 355 351 354 351 350 352 352 348
343 349 349 346 347 352 350 356 357 356 356 356 356 355 354 350 353 350 349 351 352 350
343 347 349 347 344 349 350 352 356 358 357 356 354 355 354 353 353 352 351 352 350 352
349 343 346 346 345 344 352 351 355 356 355 354 355 353 355 354 353 352 353 354 354 353
349 350 344 345 344 348 353 355 354 357 354 357 354 353 354 355 354 352 353 355 354 355
351 351 352 349 347 343 351 353 355 355 357 356 357 357 352 354 355 353 353 353 354 354
353 352 351 352 352 345 347 352 352 354 355 356 359 345 343 350 352 355 354 353 353 355
354 354 353 353 352 351 345 349 355 354 356 355 357 339 337 343 352 351 354 354 353 353
354 353 354 354 353 352 351 346 347 355 356 356 357 339 333 337 349 350 349 354 354 354
354 353 354 353 353 353 353 353 350 352 355 356 357 334 333 332 338 346 348 350 351 353
353 354 354 353 354 354 354 354 355 353 355 350 357 336 330 332 349 342 344 346 348 337
354 353 355 355 355 355 354 354 354 354 356 356 356 356 328 323 353 352 347 346 346 349
Wind_Speed
9 7 6 5 5 8 8 7 7 8 8 7 7 5 4 3 3 2 2 3 2 1
7 11 7 7 5 6 7 7 7 9 10 9 8 7 6 4 4 2 3 4 3 2
12 11 9 8 7 7 7 6 10 11 10 8 7 7 7 5 4 5 4 3 4 3
14 8 6 8 8 7 5 7 9 10 8 8 8 7 7 7 6 6 5 5 4 6
16 13 12 8 8 7 8 6 8 10 11 9 8 7 8 8 6 7 7 7 6 6
17 18 16 16 7 9 7 7 7 7 11 11 9 8 7 7 7 7 7 8 7 7
20 18 18 16 15 8 10 8 9 8 9 8 9 8 8 8 7 7 7 7 7 7
19 18 16 17 15 16 11 13 8 9 8 9 8 8 9 9 10 9 7 7 7 8
19 19 18 16 15 15 13 14 14 12 11 10 10 13 15 12 8 11 10 10 8 7
20 19 19 17 16 15 17 12 14 16 14 14 13 14 16 17 11 10 11 12 10 8
19 20 18 18 18 16 15 17 15 13 14 14 12 15 16 16 12 11 12 11 12 12
19 19 18 19 18 16 15 15 16 14 14 15 14 16 17 11 8 11 11 11 12 11
19 19 20 20 19 17 15 15 12 15 15 15 16 15 18 15 10 9 8 8 9 14
18 19 19 17 16 16 15 14 14 15 14 15 15 16 18 19 13 11 10 10 9 10
Wind_Direction
197 192 190 179 171 169 179 188 174 171 170 179 183 194 176 181 211 197 246 279 314 299
197 195 187 193 189 183 177 185 181 168 172 180 184 181 185 184 207 224 230 236 252 269
199 203 183 182 207 184 189 177 181 181 175 173 180 181 179 195 211 191 215 231 250 262
196 196 185 190 196 194 198 148 163 171 165 176 182 184 177 195 210 206 210 230 219 246
194 193 201 201 197 191 197 168 169 177 181 187 186 184 185 196 197 198 212 223 223 242
192 197 200 204 197 199 191 192 177 176 178 180 184 187 191 196 206 207 211 205 209 221
195 194 201 203 204 197 192 187 186 182 191 181 184 186 188 193 205 213 215 220 217 215
193 196 193 200 199 205 200 202 186 187 185 191 188 195 191 190 201 209 221 228 222 227
189 194 198 194 195 198 204 205 205 206 202 201 207 203 194 194 193 205 212 228 235 228
192 192 196 194 196 193 202 203 201 205 205 211 213 206 201 200 207 205 211 217 226 234
193 194 191 192 196 199 195 206 213 206 207 212 214 204 206 204 213 212 212 206 212 219
191 191 189 195 196 197 198 201 209 213 210 212 219 204 206 184 202 219 220 218 218 216
187 189 191 193 194 196 202 204 202 212 214 212 217 205 203 191 210 216 224 223 224 216
185 190 190 189 193 194 199 203 209 213 217 218 213 216 201 196 210 217 217 226 226 228